This is the latest recevied weather packets stored in our database for station/object N3DXC. If no packets are shown the sender has not sent any weather packets the latest 10 day(s).
| Time | Temp. | Humidity | Pressure | Rain* | Wind** | Luminosity | Snow |
|---|---|---|---|---|---|---|---|
| 1777934094 | 20° C | 47% | 1008.1 hPa | 0 mm | - | - | - |
| 1777932293 | 19.44° C | 46% | 1008.1 hPa | 0 mm | - | - | - |
| 1777926893 | 20° C | 45% | 1008.2 hPa | 0 mm | - | - | - |
| 1777925094 | 20° C | 43% | 1008.5 hPa | 0 mm | - | - | - |
| 1777923293 | 20° C | 44% | 1008.7 hPa | 0 mm | - | - | - |
| 1777922993 | 20.56° C | 44% | 1008.7 hPa | 0 mm | - | - | - |
| 1777922393 | 20° C | 42% | 1008.9 hPa | 0 mm | - | - | - |
| 1777921793 | 20° C | 45% | 1009.1 hPa | 0 mm | - | - | - |
| 1777921493 | 20° C | 44% | 1009.2 hPa | 0 mm | - | - | - |
| 1777919993 | 19.44° C | 44% | 1009.5 hPa | 0 mm | - | - | - |
| 1777919693 | 19.44° C | 44% | 1009.5 hPa | 0 mm | - | - | - |
| 1777919393 | 19.44° C | 44% | 1009.5 hPa | 0 mm | - | - | - |
| 1777918193 | 19.44° C | 45% | 1009.6 hPa | 0 mm | - | - | - |
| 1777917593 | 18.89° C | 43% | 1009.6 hPa | 0 mm | - | - | - |
| 1777916393 | 18.89° C | 45% | 1010 hPa | 0 mm | - | - | - |
| 1777916093 | 19.44° C | 44% | 1010.1 hPa | 0 mm | - | - | - |
| 1777915793 | 18.89° C | 46% | 1010.2 hPa | 0 mm | - | - | - |
| 1777915493 | 18.89° C | 44% | 1010.2 hPa | 0 mm | - | - | - |
| 1777915193 | 18.89° C | 45% | 1010.1 hPa | 0 mm | - | - | - |
| 1777914293 | 18.33° C | 44% | 1010.3 hPa | 0 mm | - | - | - |
| 1777912793 | 17.78° C | 44% | 1010.8 hPa | 0 mm | - | - | - |
| 1777910694 | 16.67° C | 45% | 1011.1 hPa | 0 mm | - | - | - |
| 1777910094 | 17.22° C | 47% | 1011.2 hPa | 0 mm | - | - | - |
| 1777909193 | 16.67° C | 48% | 1011.3 hPa | 0 mm | - | - | - |
| 1777908893 | 16.67° C | 46% | 1011.2 hPa | 0 mm | - | - | - |
* Rain latest hour (hover to see other rain measurements)
** Current wind speed in m/s (hover to see current wind gust speed)